Miscellaneous Local Product
Issued by NWS Hastings, NE

Home | Current Version | Previous Version | Text Only | Print | Product List | Glossary On
Versions: 1 2 3 4 5 6 7 8 9 10 11 12 13 14 15 16 17 18 19 20 21 22 23 24 25 26 27 28 29 30 31 32 33 34 35 36 37 38 39 40 41 42 43 44 45 46 47 48 49 50
256
AXUS43 KGID 230502
MISGRI

GID CWA HOURLY WEATHER ROUNDUP
NATIONAL WEATHER SERVICE HASTINGS NE
1100 PM CST WED NOV 22 2017

NOTE: "FAIR" INDICATES FEW OR NO CLOUDS BELOW 12,000 FEET WITH NO
SIGNIFICANT WEATHER AND/OR OBSTRUCTIONS TO VISIBILITY.

...SOUTH CENTRAL NEBRASKA...

CITY           SKY/WX    TMP DP  RH WIND       PRES   REMARKS
GRAND ISLAND   CLEAR     40  30  67 SW9       30.04F WCI  34
KEARNEY        CLEAR     44  32  62 W5        30.06S
HASTINGS       CLOUDY    42  26  53 SW6       30.05F
ORD            CLEAR     35  29  78 NW3       30.03S
YORK           CLEAR     39  25  56 SW10      30.03F WCI  32
AURORA         CLEAR     37  24  59 W9        30.04S WCI  30
LEXINGTON      CLEAR     37  31  81 NW8       30.08S WCI  30
HOLDREGE       CLEAR     48  35  60 W6        30.07S
HEBRON         PTCLDY    42  22  46 SW8       30.05F

...NEBRASKA PANHANDLE...

CITY           SKY/WX    TMP DP  RH WIND       PRES   REMARKS
CHADRON        PTCLDY    44  36  73 W5        30.13S
ALLIANCE       CLOUDY    37  35  92 W12       30.16R WCI  29
SCOTTSBLUFF    CLOUDY    42  36  79 NW6       30.18F
SIDNEY         CLEAR     43  37  79 NW12      30.19S

...WESTERN AND NORTH CENTRAL NEBRASKA...

CITY           SKY/WX    TMP DP  RH WIND       PRES   REMARKS
VALENTINE      CLEAR     45  37  73 W9        30.06R
AINSWORTH      CLEAR     41  35  79 W8        30.05S
ONEILL         CLEAR     45  37  72 W6        30.01S
BROKEN BOW     CLEAR     38  31  76 CALM      30.06S
IMPERIAL       CLOUDY    50  39  66 NW13      30.13R
NORTH PLATTE   CLEAR     36  32  85 NW7       30.10R WCI  30
MCCOOK         CLOUDY    41  35  79 NW6       30.10R

...EASTERN NEBRASKA...

CITY           SKY/WX    TMP DP  RH WIND       PRES   REMARKS
NORFOLK        CLEAR     40  27  59 CALM      29.98F
SO SIOUX CITY  CLEAR     29  20  69 SE8       29.97F WCI  21
TEKAMAH        CLEAR     34  20  56 S12       30.01F WCI  25
COLUMBUS       CLEAR     42  24  49 SW8       30.02F
ALBION         CLEAR     42  31  67 NW6       30.01S
OMAHA EPPLEY   CLEAR     32  20  61 SE12      30.03F WCI  23
OFFUTT AFB     CLEAR     29  20  67 E5        30.03F WCI  24
MILLARD        CLEAR     36  22  57 SE3       30.03F
LINCOLN        CLOUDY    40  22  48 S6        30.04F
NEBRASKA CITY  PTCLDY    34  22  60 S7        30.05R WCI  28
BEATRICE       CLEAR     41  22  47 SW10      30.05F
FALLS CITY     CLOUDY    36  19  50 S7        30.07F WCI  30

...NORTHERN KANSAS...

CITY           SKY/WX    TMP DP  RH WIND       PRES   REMARKS
GOODLAND       CLOUDY    44  34  67 W10       30.16F
HILL CITY      CLEAR     44  35  70 W6        30.09F
NORTON         CLEAR     39  28  65 SW10      30.07F WCI  32
PHILLIPSBURG   CLEAR     36  28  75 NW3       30.08S
SMITH CENTER   CLEAR     36  25  64 SE5       30.08F WCI  32
HAYS           CLEAR     41  30  65 W6        30.10F
RUSSELL        CLEAR     41  23  48 S12       30.08F
CONCORDIA      CLOUDY    41  21  44 SW13      30.07F
SALINA         CLEAR     41  21  44 S10       30.12F
TOPEKA         CLOUDY    38  20  48 SW7       30.14F WCI  33



USA.gov is the U.S. government's official web portal to all federal, state and local government web resources and services.